Flag for U.S.A. Weather past 2 weeks in Lubbock, Texas, U.S.A.

62 °F

Mostly cloudy.

Feels Like: 62 °F
Forecast: 55 / 70 °F
Wind: 15 mph from Southeast

Location: Lubbock International Airport

Current Time: Oct 4, 2015 at 12:17:43 PM

Latest Report: Oct 4, 2015 at 11:53 AM

Visibility: 10 mi

Pressure: 30.04 "Hg (26.78 "Hg at 976m altitude)

Humidity: 62%

Dew point: 49 °F

Location of LubbockLocation

Historic Weather in Lubbock — Graph


Lubbock temperature yesterday

Maximum temperature yesterday: 62 °F (at 10:53 AM)
Minimum temperature yesterday: 53 °F (at 7:53 AM)
Average temperature yesterday: 57 °F

Past Weeks' High & Low Weather Summary

High90 °F (Oct 1, 4:53 PM)97% (Sep 21, 4:53 AM)30.21 "Hg (Sep 21, 4:53 AM)
Low52 °F (Oct 4, 2:53 AM)24% (Sep 22, 4:53 PM)29.78 "Hg (Sep 28, 4:53 PM)
Average71 °F61%29.95 "Hg
* Reported Sep 19 10:53 AM — Oct 4 10:53 AM, Lubbock, Weather by CustomWeather, © 2015

Note: Actual official high and low records may vary slightly from our data, if they occured in-between our weather recording intervals... More about our weather records


Lubbock weather history for previous 24 hours

Time TempWeatherWind HumidityBarometerVisibility
10:53 AM
Sun, Oct 4
59 °FMostly cloudy.15 mph69%30.05 "Hg10 mi
9:53 AM56 °FMostly cloudy.12 mph81%30.04 "Hg10 mi
8:53 AM54 °FMore clouds than sun.8 mph86%30.01 "Hg10 mi
7:53 AM53 °FLight rain. Overcast.9 mph86%29.99 "Hg10 mi
6:53 AM54 °FMostly cloudy.8 mph77%29.98 "Hg10 mi
5:53 AM54 °FOvercast.9 mph74%29.97 "Hg10 mi
4:53 AM53 °FPartly cloudy.12 mph83%29.96 "Hg10 mi
3:53 AM52 °FOvercast.8 mph89%29.99 "Hg10 mi
2:53 AM52 °FPassing clouds.9 mph89%30.00 "Hg10 mi
1:53 AM53 °FMostly cloudy.8 mph83%30.00 "Hg10 mi
12:53 AM53 °FMostly cloudy.9 mph83%29.98 "Hg10 mi
11:53 PM
Sat, Oct 3
53 °FMostly cloudy.7 mph83%29.96 "Hg10 mi
10:53 PM53 °FMostly cloudy.10 mph83%29.94 "Hg10 mi
9:53 PM54 °FOvercast.9 mph83%29.91 "Hg10 mi
8:53 PM54 °FMostly cloudy.12 mph86%29.88 "Hg10 mi
7:53 PM55 °FMostly cloudy.13 mph80%29.87 "Hg10 mi
6:53 PM57 °FLight rain. Cloudy.12 mph81%29.85 "Hg10 mi
5:53 PM62 °FMostly cloudy.9 mph58%29.87 "Hg10 mi
4:53 PM61 °FCloudy.22 mph65%29.82 "Hg10 mi
3:53 PM57 °FLight rain. Cloudy.17 mph78%29.82 "Hg10 mi
2:53 PM55 °FLight rain. Overcast.13 mph83%29.87 "Hg7 mi
1:53 PM55 °FThunderstorms. Overcast.9 mph77%29.91 "Hg10 mi
12:53 PM58 °FOvercast.20 mph58%29.90 "Hg10 mi
Weather by CustomWeather, © 2015

See weather overviewHow to use our weather pages